Time,TemperatureF,DewpointF,PressureIn,WindDirection,WindDirectionDegrees,WindSpeedMPH,WindSpeedGustMPH,Humidity,HourlyPrecipIn,Conditions,Clouds,dailyrainin,SoftwareType,DateUTC
2013-06-22 00:03:00,60.3,59.0,29.84,SSE,163,0.0,3.0,96,0.05,,,0.00,weatherlink.com 1.10,2013-06-22 04:03:00,
2013-06-22 00:19:00,60.3,59.0,29.84,SE,136,1.0,2.0,96,0.05,,,0.00,weatherlink.com 1.10,2013-06-22 04:19:00,
2013-06-22 00:34:00,60.2,59.0,29.84,SE,144,0.0,2.0,96,0.02,,,0.00,weatherlink.com 1.10,2013-06-22 04:34:00,
2013-06-22 00:49:00,60.2,59.0,29.84,SW,225,0.0,0.0,96,0.01,,,0.00,weatherlink.com 1.10,2013-06-22 04:49:00,
2013-06-22 01:04:00,60.3,60.0,29.84,SW,214,0.0,2.0,97,0.00,,,0.00,weatherlink.com 1.10,2013-06-22 05:04:00,
2013-06-22 01:19:00,60.3,60.0,29.84,SE,125,1.0,1.0,97,0.00,,,0.00,weatherlink.com 1.10,2013-06-22 05:19:00,
2013-06-22 01:34:00,60.3,60.0,29.83,SSE,162,0.0,2.0,97,0.00,,,0.00,weatherlink.com 1.10,2013-06-22 05:34:00,
2013-06-22 01:49:00,60.4,60.0,29.83,SSW,210,0.0,0.0,97,0.00,,,0.00,weatherlink.com 1.10,2013-06-22 05:49:00,
2013-06-22 02:04:00,60.4,60.0,29.84,SSW,210,0.0,0.0,97,0.00,,,0.00,weatherlink.com 1.10,2013-06-22 06:04:00,
2013-06-22 02:19:00,60.5,60.0,29.84,SSW,208,0.0,0.0,97,0.00,,,0.00,weatherlink.com 1.10,2013-06-22 06:19:00,
2013-06-22 02:34:00,60.6,60.0,29.84,SW,215,0.0,1.0,97,0.00,,,0.00,weatherlink.com 1.10,2013-06-22 06:34:00,
2013-06-22 02:49:00,60.7,60.0,29.82,SW,221,0.0,2.0,97,0.00,,,0.00,weatherlink.com 1.10,2013-06-22 06:49:00,
2013-06-22 03:04:00,60.6,60.0,29.81,South,191,0.0,0.0,97,0.00,,,0.00,weatherlink.com 1.10,2013-06-22 07:04:00,
2013-06-22 03:19:00,60.6,60.0,29.82,West,259,0.0,3.0,97,0.00,,,0.00,weatherlink.com 1.10,2013-06-22 07:19:00,
2013-06-22 03:34:00,60.6,60.0,29.81,SSW,207,0.0,2.0,97,0.00,,,0.00,weatherlink.com 1.10,2013-06-22 07:34:00,
2013-06-22 03:49:00,60.5,60.0,29.80,West,271,0.0,3.0,97,0.00,,,0.00,weatherlink.com 1.10,2013-06-22 07:49:00,
2013-06-22 04:04:00,60.5,60.0,29.81,West,266,0.0,1.0,97,0.00,,,0.00,weatherlink.com 1.10,2013-06-22 08:04:00,
2013-06-22 04:19:00,60.5,60.0,29.81,North,359,0.0,0.0,97,0.00,,,0.00,weatherlink.com 1.10,2013-06-22 08:19:00,
2013-06-22 04:34:00,60.5,60.0,29.81,West,280,0.0,1.0,98,0.00,,,0.00,weatherlink.com 1.10,2013-06-22 08:34:00,
2013-06-22 04:49:00,60.4,60.0,29.81,West,276,0.0,1.0,98,0.00,,,0.00,weatherlink.com 1.10,2013-06-22 08:49:00,
2013-06-22 05:04:00,60.4,60.0,29.82,West,279,0.0,2.0,98,0.00,,,0.00,weatherlink.com 1.10,2013-06-22 09:04:00,
2013-06-22 05:19:00,60.4,60.0,29.82,West,269,0.0,2.0,98,0.00,,,0.00,weatherlink.com 1.10,2013-06-22 09:19:00,
2013-06-22 05:34:00,60.4,60.0,29.82,West,264,0.0,0.0,98,0.00,,,0.00,weatherlink.com 1.10,2013-06-22 09:34:00,
2013-06-22 05:49:00,60.4,60.0,29.83,West,264,0.0,1.0,98,0.00,,,0.00,weatherlink.com 1.10,2013-06-22 09:49:00,
2013-06-22 06:04:00,60.4,60.0,29.84,NW,326,0.0,2.0,98,0.00,,,0.00,weatherlink.com 1.10,2013-06-22 10:04:00,
2013-06-22 06:19:00,60.4,60.0,29.86,SW,225,1.0,3.0,98,0.00,,,0.00,weatherlink.com 1.10,2013-06-22 10:19:00,
2013-06-22 06:34:00,60.5,60.0,29.86,WSW,240,1.0,2.0,98,0.00,,,0.00,weatherlink.com 1.10,2013-06-22 10:34:00,
2013-06-22 06:49:00,60.7,60.0,29.87,West,281,1.0,2.0,98,0.00,,,0.00,weatherlink.com 1.10,2013-06-22 10:49:00,
2013-06-22 07:04:00,60.8,60.0,29.88,West,270,0.0,4.0,98,0.00,,,0.00,weatherlink.com 1.10,2013-06-22 11:04:00,
2013-06-22 07:19:00,61.0,61.0,29.87,North,9,0.0,2.0,98,0.00,,,0.00,weatherlink.com 1.10,2013-06-22 11:19:00,
2013-06-22 07:34:00,61.1,61.0,29.88,WSW,250,0.0,3.0,98,0.00,,,0.00,weatherlink.com 1.10,2013-06-22 11:34:00,
2013-06-22 07:49:00,61.1,61.0,29.88,WNW,298,0.0,4.0,98,0.00,,,0.00,weatherlink.com 1.10,2013-06-22 11:49:00,
2013-06-22 08:04:00,61.2,61.0,29.89,WSW,243,0.0,3.0,98,0.00,,,0.00,weatherlink.com 1.10,2013-06-22 12:04:00,
2013-06-22 08:19:00,61.2,61.0,29.90,West,259,0.0,4.0,98,0.00,,,0.00,weatherlink.com 1.10,2013-06-22 12:19:00,
2013-06-22 08:34:00,61.1,60.0,29.90,SW,229,0.0,6.0,97,0.00,,,0.00,weatherlink.com 1.10,2013-06-22 12:34:00,
2013-06-22 08:49:00,61.3,61.0,29.90,NW,314,1.0,3.0,97,0.00,,,0.00,weatherlink.com 1.10,2013-06-22 12:49:00,
2013-06-22 09:04:00,61.8,61.0,29.90,West,269,1.0,5.0,97,0.00,,,0.00,weatherlink.com 1.10,2013-06-22 13:04:00,
2013-06-22 09:19:00,62.2,61.0,29.90,NW,315,0.0,5.0,97,0.00,,,0.00,weatherlink.com 1.10,2013-06-22 13:19:00,
2013-06-22 09:34:00,62.9,62.0,29.91,West,280,1.0,4.0,96,0.00,,,0.00,weatherlink.com 1.10,2013-06-22 13:34:00,
2013-06-22 09:49:00,62.7,61.0,29.91,NW,311,2.0,5.0,95,0.00,,,0.00,weatherlink.com 1.10,2013-06-22 13:49:00,
2013-06-22 10:04:00,63.6,62.0,29.92,SW,217,1.0,5.0,94,0.00,,,0.00,weatherlink.com 1.10,2013-06-22 14:04:00,
2013-06-22 10:19:00,66.1,64.0,29.92,NW,307,2.0,4.0,91,0.00,,,0.00,weatherlink.com 1.10,2013-06-22 14:19:00,
2013-06-22 10:35:00,68.1,65.0,29.92,NNE,23,0.0,4.0,88,0.00,,,0.00,weatherlink.com 1.10,2013-06-22 14:35:00,
2013-06-22 10:50:00,67.8,64.0,29.93,West,281,0.0,6.0,86,0.00,,,0.00,weatherlink.com 1.10,2013-06-22 14:50:00,
2013-06-22 11:05:00,67.5,64.0,29.93,North,353,1.0,4.0,87,0.00,,,0.00,weatherlink.com 1.10,2013-06-22 15:05:00,
2013-06-22 11:20:00,68.5,64.0,29.92,NW,321,1.0,5.0,86,0.00,,,0.00,weatherlink.com 1.10,2013-06-22 15:20:00,
2013-06-22 11:35:00,68.3,63.0,29.92,West,266,2.0,4.0,84,0.00,,,0.00,weatherlink.com 1.10,2013-06-22 15:35:00,
2013-06-22 11:50:00,67.6,63.0,29.92,NE,34,2.0,4.0,85,0.00,,,0.00,weatherlink.com 1.10,2013-06-22 15:50:00,
2013-06-22 12:05:00,67.7,64.0,29.92,NNE,13,4.0,5.0,87,0.00,,,0.00,weatherlink.com 1.10,2013-06-22 16:05:00,
2013-06-22 12:20:00,68.9,64.0,29.93,NNE,20,3.0,7.0,85,0.00,,,0.00,weatherlink.com 1.10,2013-06-22 16:20:00,
2013-06-22 12:35:00,68.9,64.0,29.94,NNE,33,4.0,5.0,84,0.00,,,0.00,weatherlink.com 1.10,2013-06-22 16:35:00,
2013-06-22 12:50:00,68.6,64.0,29.94,NNE,19,3.0,5.0,86,0.00,,,0.00,weatherlink.com 1.10,2013-06-22 16:50:00,
2013-06-22 13:05:00,68.0,64.0,29.94,North,354,3.0,5.0,87,0.00,,,0.00,weatherlink.com 1.10,2013-06-22 17:05:00,
2013-06-22 13:20:00,68.9,65.0,29.93,NNE,12,3.0,3.0,86,0.00,,,0.00,weatherlink.com 1.10,2013-06-22 17:20:00,
2013-06-22 13:35:00,69.0,64.0,29.93,NNE,23,4.0,4.0,85,0.00,,,0.00,weatherlink.com 1.10,2013-06-22 17:35:00,
2013-06-22 13:50:00,68.8,65.0,29.92,North,360,3.0,4.0,86,0.00,,,0.00,weatherlink.com 1.10,2013-06-22 17:50:00,
2013-06-22 14:05:00,68.9,65.0,29.91,North,356,4.0,5.0,87,0.00,,,0.00,weatherlink.com 1.10,2013-06-22 18:05:00,
2013-06-22 14:20:00,69.4,65.0,29.92,NNE,16,2.0,4.0,85,0.00,,,0.00,weatherlink.com 1.10,2013-06-22 18:20:00,
2013-06-22 14:35:00,68.1,64.0,29.91,NNE,18,2.0,3.0,85,0.00,,,0.00,weatherlink.com 1.10,2013-06-22 18:35:00,
2013-06-22 14:50:00,69.2,65.0,29.92,North,360,2.0,5.0,86,0.00,,,0.00,weatherlink.com 1.10,2013-06-22 18:50:00,
2013-06-22 15:05:00,70.1,65.0,29.92,North,358,3.0,6.0,85,0.00,,,0.00,weatherlink.com 1.10,2013-06-22 19:05:00,
2013-06-22 15:20:00,68.0,64.0,29.89,North,356,4.0,6.0,86,0.00,,,0.00,weatherlink.com 1.10,2013-06-22 19:20:00,
2013-06-22 15:35:00,68.8,65.0,29.89,North,353,5.0,7.0,86,0.00,,,0.00,weatherlink.com 1.10,2013-06-22 19:35:00,
2013-06-22 15:50:00,69.6,65.0,29.90,NNE,16,3.0,7.0,84,0.00,,,0.00,weatherlink.com 1.10,2013-06-22 19:50:00,
2013-06-22 16:05:00,69.7,64.0,29.89,ENE,63,8.0,11.0,83,0.00,,,0.00,weatherlink.com 1.10,2013-06-22 20:05:00,
2013-06-22 16:20:00,69.6,64.0,29.89,ENE,69,5.0,9.0,83,0.00,,,0.00,weatherlink.com 1.10,2013-06-22 20:20:00,
2013-06-22 16:35:00,69.5,64.0,29.89,ENE,65,8.0,12.0,83,0.00,,,0.00,weatherlink.com 1.10,2013-06-22 20:35:00,
2013-06-22 16:50:00,69.7,64.0,29.89,East,94,10.0,13.0,83,0.00,,,0.00,weatherlink.com 1.10,2013-06-22 20:50:00,
2013-06-22 17:05:00,69.2,64.0,29.89,ESE,106,7.0,11.0,84,0.00,,,0.00,weatherlink.com 1.10,2013-06-22 21:05:00,
2013-06-22 17:20:00,69.1,65.0,29.91,ESE,122,4.0,7.0,85,0.00,,,0.00,weatherlink.com 1.10,2013-06-22 21:20:00,
2013-06-22 17:35:00,69.2,64.0,29.92,SSE,149,1.0,7.0,84,0.00,,,0.00,weatherlink.com 1.10,2013-06-22 21:35:00,
2013-06-22 17:50:00,69.3,64.0,29.92,SSE,162,3.0,5.0,84,0.00,,,0.00,weatherlink.com 1.10,2013-06-22 21:50:00,
2013-06-22 18:05:00,68.9,64.0,29.93,ESE,119,1.0,5.0,85,0.00,,,0.00,weatherlink.com 1.10,2013-06-22 22:05:00,
2013-06-22 18:20:00,68.4,64.0,29.93,SSW,206,1.0,4.0,86,0.00,,,0.00,weatherlink.com 1.10,2013-06-22 22:20:00,
2013-06-22 18:35:00,67.6,64.0,29.94,SW,223,3.0,7.0,87,0.00,,,0.00,weatherlink.com 1.10,2013-06-22 22:35:00,
2013-06-22 18:50:00,66.8,64.0,29.93,SE,132,4.0,6.0,89,0.00,,,0.00,weatherlink.com 1.10,2013-06-22 22:50:00,
2013-06-22 19:05:00,65.8,63.0,29.94,SE,141,1.0,4.0,91,0.00,,,0.00,weatherlink.com 1.10,2013-06-22 23:05:00,
2013-06-22 19:20:00,66.4,64.0,29.94,SE,129,0.0,0.0,92,0.00,,,0.00,weatherlink.com 1.10,2013-06-22 23:20:00,
2013-06-22 19:35:00,66.9,64.0,29.95,South,176,1.0,4.0,91,0.00,,,0.00,weatherlink.com 1.10,2013-06-22 23:35:00,
2013-06-22 19:50:00,66.6,64.0,29.94,ESE,117,1.0,4.0,91,0.00,,,0.00,weatherlink.com 1.10,2013-06-22 23:50:00,
2013-06-22 20:05:00,66.0,64.0,29.93,SE,141,1.0,2.0,93,0.00,,,0.00,weatherlink.com 1.10,2013-06-23 00:05:00,
2013-06-22 20:20:00,66.5,64.0,29.94,SE,128,1.0,2.0,92,0.00,,,0.00,weatherlink.com 1.10,2013-06-23 00:20:00,
2013-06-22 20:35:00,66.0,64.0,29.94,ESE,106,0.0,0.0,93,0.00,,,0.00,weatherlink.com 1.10,2013-06-23 00:35:00,
2013-06-22 20:50:00,65.8,64.0,29.94,ESE,106,0.0,0.0,93,0.00,,,0.00,weatherlink.com 1.10,2013-06-23 00:50:00,
2013-06-22 21:05:00,65.9,64.0,29.94,ESE,106,0.0,0.0,93,0.00,,,0.00,weatherlink.com 1.10,2013-06-23 01:05:00,
2013-06-22 21:20:00,65.1,63.0,29.93,ESE,106,0.0,0.0,92,0.00,,,0.00,weatherlink.com 1.10,2013-06-23 01:20:00,
2013-06-22 21:35:00,63.9,63.0,29.92,NE,46,0.0,2.0,95,0.00,,,0.00,weatherlink.com 1.10,2013-06-23 01:35:00,
2013-06-22 21:50:00,63.7,63.0,29.91,NNE,22,2.0,3.0,96,0.00,,,0.00,weatherlink.com 1.10,2013-06-23 01:50:00,
2013-06-22 22:05:00,63.1,62.0,29.91,West,273,0.0,1.0,95,0.00,,,0.00,weatherlink.com 1.10,2013-06-23 02:05:00,
2013-06-22 22:20:00,62.6,62.0,29.91,West,273,0.0,0.0,96,0.00,,,0.00,weatherlink.com 1.10,2013-06-23 02:20:00,
2013-06-22 22:35:00,62.2,61.0,29.91,NE,50,0.0,0.0,96,0.00,,,0.00,weatherlink.com 1.10,2013-06-23 02:35:00,
2013-06-22 22:50:00,61.4,60.0,29.91,West,259,0.0,0.0,96,0.00,,,0.00,weatherlink.com 1.10,2013-06-23 02:50:00,
2013-06-22 23:05:00,60.9,60.0,29.90,West,262,0.0,0.0,97,0.00,,,0.00,weatherlink.com 1.10,2013-06-23 03:05:00,
2013-06-22 23:20:00,60.6,60.0,29.89,West,262,0.0,0.0,97,0.00,,,0.00,weatherlink.com 1.10,2013-06-23 03:20:00,
2013-06-22 23:35:00,60.3,60.0,29.89,West,260,0.0,0.0,97,0.00,,,0.00,weatherlink.com 1.10,2013-06-23 03:35:00,
2013-06-22 23:50:00,60.0,59.0,29.90,WSW,249,0.0,0.0,97,0.00,,,0.00,weatherlink.com 1.10,2013-06-23 03:50:00,